Date,TemperatureHighF,TemperatureAvgF,TemperatureLowF,DewpointHighF,DewpointAvgF,DewpointLowF,HumidityHigh,HumidityAvg,HumidityLow,PressureMaxIn,PressureMinIn,WindSpeedMaxMPH,WindSpeedAvgMPH,GustSpeedMaxMPH,PrecipitationSumIn
2013-1-1,36.0,23.7,16.2,21.2,8.6,3.2,63,54,47,30.15,29.97,8,2,13,0.00
2013-1-2,42.6,24.1,10.2,32.0,9.1,-0.4,59,47,31,30.21,30.09,6,1,8,0.00
2013-1-3,40.3,25.0,9.7,32.0,8.8,-2.2,55,41,30,30.21,30.00,7,3,13,0.00
2013-1-4,46.6,29.5,19.2,15.8,6.6,-2.2,48,39,27,30.09,29.97,5,2,9,0.00
2013-1-5,47.7,24.7,14.2,23.0,7.4,1.4,66,50,33,30.18,30.00,5,1,8,0.00
2013-1-6,41.4,30.2,14.4,15.8,10.2,1.4,64,44,33,30.00,29.80,6,2,13,1.07
2013-1-7,46.9,31.9,19.9,21.2,13.9,5.0,65,49,37,29.88,29.59,4,0,5,0.00
2013-1-8,50.4,39.1,25.9,23.0,11.4,-11.2,50,36,8,29.94,29.62,10,2,17,0.00
2013-1-9,58.8,41.7,23.9,28.4,18.3,8.6,64,40,17,29.91,29.62,5,1,9,0.00
2013-1-10,56.1,32.9,7.0,28.7,17.8,-4.7,68,55,32,29.97,29.47,14,2,14,1.07
2013-1-11,21.0,14.8,9.1,32.0,9.7,-0.4,69,61,53,30.03,29.62,10,2,10,0.00
2013-1-12,72.1,10.9,-0.9,50.0,25.6,-11.2,57,52,39,30.06,26.81,5,1,7,0.25
2013-1-13,27.1,11.4,4.5,32.0,24.6,-2.2,55,48,43,30.12,30.03,6,2,11,0.00
2013-1-14,24.6,15.0,8.1,32.0,13.7,-2.2,51,47,40,30.09,29.91,7,3,13,0.00
2013-1-15,33.8,25.4,19.0,15.8,9.8,1.4,64,53,47,30.03,29.88,7,4,15,0.00
2013-1-16,47.5,33.6,26.6,23.0,14.6,10.4,52,46,37,30.18,29.94,6,3,12,0.00
2013-1-17,48.2,34.4,28.6,21.2,14.1,10.4,52,42,37,30.21,29.94,7,3,11,0.00
2013-1-18,58.5,40.6,28.6,24.8,16.1,8.6,59,38,15,29.97,29.83,6,2,10,0.00
2013-1-19,48.7,34.1,20.7,26.6,18.5,10.4,78,55,40,30.18,29.91,5,1,8,0.00
2013-1-20,33.8,24.0,17.4,19.4,11.0,5.0,81,59,51,30.36,30.00,5,2,12,0.00
2013-1-21,38.7,27.3,13.6,32.0,11.9,1.4,70,51,41,30.18,26.81,5,1,8,0.00
2013-1-22,50.7,28.4,10.4,32.0,21.1,5.0,79,53,29,30.03,26.05,5,0,7,0.00
2013-1-23,30.2,23.6,20.7,14.0,9.8,8.6,63,58,51,30.09,25.34,3,2,7,0.00
2013-1-24,56.7,37.9,19.6,30.2,17.7,10.4,70,46,31,30.03,26.61,8,1,14,0.00
2013-1-25,54.1,34.2,21.9,32.0,19.9,12.2,78,58,37,30.00,29.83,3,0,6,0.00
2013-1-26,61.0,48.3,29.5,32.0,25.8,17.6,72,43,29,29.85,29.59,4,1,8,0.00
2013-1-27,37.4,32.1,26.4,33.8,27.7,17.6,88,84,67,29.83,29.62,3,0,6,0.00
2013-1-28,37.4,29.6,0.0,26.6,21.3,8.6,89,74,31,31.63,26.05,4,0,5,0.08
2013-1-29,30.0,22.7,12.6,32.0,13.4,-4.0,63,50,43,31.60,7.56,5,2,8,0.00
2013-1-30,35.1,28.2,12.6,32.0,21.5,14.0,84,67,46,32.87,7.56,6,2,8,0.00
2013-1-31,29.8,18.1,5.2,32.0,18.7,-0.4,76,62,48,30.09,29.85,6,1,9,0.00